Torna al catalogo

NOAA 16 DEB

AttivoPO
NORAD 42359·DEBRIS·🇺🇸 United States

Lanciato Sep 21, 2000 da Vandenberg Space Force Base

Loading…

Prossimi Passaggi (prossime 24 ore)

TLE

AggiornatoSource: Space-Track

Epoca: Sep 14, 2026, 08:01 UTC

1 42359U 00055RB  26257.33421713  .00003915  00000-0  10655-2 0  9996
2 42359  98.9756  81.4501 0012916 275.6370  84.3348 14.48026976543310

Traccia NOAA 16 DEB in tempo reale con AllMySat

Download on the App Store